SL-14 DEB, 45271

Orbit data source: Space-Track

SL-14 DEB, 45271 is space debris in LEO originally from a launch on Thu, 15 Aug 1991 UTC launched from the Plesetsk Missile And Space Complex (PKMTR). Debris objects in space refer to the collection of defunct objects orbiting the Earth. Examples of debris include non-operational satellites, rocket bodies, and fragments generated from explosions, collisions, or faulty payload assembly.

Loading next visibility...
Identifier
45271, 1991-056H
Orbit
LEO
Country
Flag of CISCIS
Related business
Manufacturer
Unknown
Mission
Spacecraft
Bus & Motor
Unknown
Mass
Unknown
Launch date (UTC)
1991-08-15 (34 years ago)
Launch vehicle
Unknown
Launch site
Plesetsk Missile And Space Complex (PKMTR)
Object type
Payload
Rocket body
Debris
Shape & HBR
Unknown shape, 0.1 m
Radar Cross Section
Small (<0.1 m²)

Expand to show TLE details & history
Last TLE update: 2 days ago

TLE from 2 days ago
0 SL-14 DEB
1 45271U 91056H   26036.02088510 -.00000157  00000-0 -50406-3 0  9994
2 45271  82.4192 251.9073 0051500 308.9573  50.6959 13.06836277284573
Epoch: 2026-02-05T00:30Z
TLE epoch observation values (Epoch: 2026-02-05T00:30:04.472Z)
Latitude
-0.0001°
Longitude
109.20955°
Altitude
1,213.492 km
Speed
7.259 km/s
True Right ascension
16h 47m 37s
True Declination
0° 00' 00"
Sunlit
Object was in daylight at epoch
Visualization orbit readout
Latitude
Unknown
Longitude
Unknown
Altitude
Unknown
Speed
Unknown
Apparent Right ascension
Unknown
Apparent Declination
Unknown
Sunlit
N/A
Visualization observer readout
Local Sidereal Time
13:48:27
Azimuth
Unknown
Elevation
Unknown
Doppler factor
Unknown
Orbital elements
Apogee altitude
1,271.882 km
Perigee altitude
1,193.49 km
Semi-major axis
7,610.823 km
Eccentricity
0.00515
Inclination
82.4192°
RAAN
251.9073°
Arg. of periapsis
308.9573°
True anomaly
51.15442°
Mean anomaly
50.6959°
Eccentric anomaly
50.92497°
Mean motion
3.26886 °/min
Orbital period
110.13 mins
BSTAR
-0.00050406
Loading maneuver chart data...
Computing Atmospheric mass density...
Loading historical data...
Loading historical data...
Loading historical data...
Loading historical data...
Loading historical data...
Loading historical data...
Loading historical data...

Documentation

Showing up to 5 results
|